Terminal Aerodrome Forecast
Issued by NWS Wilmington, OH

Current Version | Previous Version | Text Only | Print | Product List | Glossary Off
Versions: 1 2 3 4 5 6 7 8 9 10 11 12 13 14 15 16

000
FTUS41 KILN 171121
TAFILN
TAF
KILN 171121Z 1712/1812 21003KT P6SM FEW250
     FM171500 23008KT P6SM FEW250
     FM172300 19003KT P6SM SKC=

USA.gov is the U.S. government's official web portal to all federal, state and local government web resources and services.